QPF
0.01 0.01 0.01 0.01 0.02 0.02 0.02 0.02 0.02 0.02 0.02 0.02 0.02 0.02 0.02 0.02 0.02 0.01 0.01 0.01 0.01 0.02 0.02 0.02 0.02 0.02 0.02 0.03 0.03 0.04 0.04 0.04 0.04 0.04 0.05 0.05 0.04 0.02 0.01 0.00 0.00 0.00 0.00
0.01 0.01 0.01 0.01 0.01 0.02 0.02 0.02 0.03 0.03 0.03 0.02 0.02 0.02 0.03 0.03 0.02 0.01 0.01 0.01 0.02 0.02 0.02 0.02 0.01 0.01 0.02 0.03 0.03 0.03 0.03 0.03 0.03 0.04 0.05 0.04 0.02 0.01 0.01 0.00 0.00 0.00 0.00
0.01 0.01 0.02 0.02 0.02 0.02 0.02 0.02 0.04 0.04 0.03 0.03 0.04 0.04 0.03 0.02 0.02 0.02 0.02 0.02 0.02 0.02 0.02 0.02 0.02 0.02 0.02 0.03 0.03 0.03 0.02 0.02 0.02 0.03 0.03 0.02 0.02 0.01 0.01 0.01 0.01 0.00 0.00
0.01 0.01 0.02 0.02 0.02 0.02 0.02 0.02 0.03 0.04 0.05 0.04 0.04 0.03 0.01 0.01 0.01 0.01 0.02 0.02 0.02 0.03 0.04 0.03 0.03 0.02 0.02 0.02 0.02 0.02 0.02 0.02 0.02 0.03 0.02 0.02 0.02 0.01 0.01 0.01 0.01 0.00 0.00
0.01 0.01 0.02 0.02 0.02 0.03 0.03 0.02 0.02 0.02 0.02 0.02 0.01 0.01 0.01 0.01 0.01 0.01 0.01 0.01 0.02 0.04 0.06 0.05 0.04 0.03 0.03 0.03 0.02 0.02 0.03 0.03 0.03 0.03 0.02 0.02 0.01 0.01 0.01 0.01 0.01 0.00 0.00
0.01 0.02 0.02 0.02 0.02 0.03 0.03 0.02 0.02 0.02 0.01 0.01 0.01 0.00 0.00 0.00 0.01 0.01 0.01 0.01 0.02 0.04 0.05 0.04 0.04 0.04 0.04 0.03 0.04 0.04 0.03 0.03 0.03 0.03 0.02 0.01 0.01 0.01 0.01 0.01 0.01 0.01 0.01
0.01 0.01 0.02 0.02 0.02 0.02 0.02 0.02 0.02 0.01 0.01 0.00 0.00 0.00 0.00 0.01 0.01 0.01 0.01 0.01 0.02 0.03 0.04 0.04 0.04 0.04 0.04 0.04 0.04 0.04 0.04 0.03 0.02 0.02 0.02 0.01 0.01 0.01 0.01 0.01 0.01 0.01 0.00
0.01 0.01 0.02 0.02 0.02 0.02 0.02 0.02 0.01 0.01 0.01 0.01 0.01 0.01 0.01 0.01 0.02 0.01 0.01 0.01 0.01 0.02 0.03 0.03 0.03 0.04 0.04 0.04 0.04 0.03 0.03 0.02 0.02 0.01 0.01 0.01 0.01 0.01 0.01 0.02 0.01 0.01 0.01
0.01 0.01 0.01 0.01 0.02 0.01 0.01 0.01 0.01 0.01 0.01 0.02 0.02 0.02 0.02 0.02 0.02 0.02 0.02 0.01 0.01 0.01 0.02 0.02 0.03 0.03 0.03 0.03 0.03 0.02 0.02 0.02 0.01 0.01 0.01 0.01 0.01 0.01 0.01 0.02 0.02 0.01 0.01
0.01 0.01 0.01 0.01 0.01 0.01 0.01 0.01 0.01 0.01 0.01 0.01 0.02 0.02 0.02 0.03 0.03 0.03 0.02 0.02 0.02 0.01 0.01 0.02 0.02 0.02 0.03 0.02 0.02 0.02 0.02 0.01 0.01 0.01 0.01 0.01 0.01 0.01 0.01 0.02 0.01 0.01 0.01
0.01 0.01 0.01 0.01 0.00 0.00 0.00 0.00 0.01 0.01 0.01 0.01 0.01 0.01 0.02 0.02 0.03 0.03 0.03 0.02 0.02 0.01 0.01 0.01 0.01 0.02 0.02 0.02 0.02 0.02 0.01 0.01 0.01 0.01 0.01 0.01 0.00 0.01 0.01 0.01 0.01 0.01 0.01
0.00 0.00 0.00 0.00 0.00 0.00 0.00 0.00 0.00 0.01 0.01 0.01 0.01 0.01 0.01 0.01 0.01 0.02 0.02 0.02 0.02 0.02 0.01 0.01 0.01 0.01 0.01 0.01 0.01 0.01 0.01 0.01 0.01 0.01 0.01 0.01 0.00 0.00 0.00 0.01 0.01 0.01 0.01
0.00 0.00 0.00 0.00 0.00 0.00 0.00 0.00 0.00 0.01 0.01 0.02 0.01 0.01 0.01 0.01 0.01 0.01 0.01 0.01 0.02 0.02 0.01 0.01 0.01 0.01 0.01 0.01 0.01 0.01 0.01 0.01 0.01 0.01 0.01 0.01 0.00 0.00 0.01 0.01 0.01 0.01 0.02
0.00 0.00 0.00 0.00 0.00 0.00 0.00 0.01 0.01 0.01 0.02 0.02 0.02 0.02 0.01 0.01 0.01 0.01 0.01 0.01 0.01 0.01 0.01 0.01 0.01 0.01 0.01 0.01 0.01 0.01 0.01 0.01 0.01 0.01 0.01 0.01 0.01 0.01 0.01 0.01 0.01 0.01 0.02
0.00 0.00 0.00 0.00 0.01 0.01 0.01 0.01 0.01 0.01 0.02 0.02 0.02 0.02 0.02 0.02 0.01 0.02 0.02 0.02 0.02 0.02 0.02 0.01 0.01 0.01 0.01 0.01 0.01 0.01 0.01 0.01 0.01 0.01 0.01 0.01 0.01 0.01 0.01 0.01 0.01 0.01 0.01
0.01 0.01 0.01 0.01 0.01 0.01 0.01 0.01 0.01 0.01 0.01 0.02 0.02 0.02 0.02 0.02 0.02 0.02 0.02 0.02 0.02 0.02 0.02 0.02 0.01 0.01 0.01 0.01 0.01 0.01 0.01 0.01 0.01 0.01 0.01 0.01 0.01 0.01 0.01 0.01 0.01 0.01 0.01
0.01 0.01 0.01 0.01 0.01 0.01 0.01 0.01 0.01 0.01 0.01 0.01 0.01 0.01 0.01 0.02 0.02 0.02 0.02 0.02 0.02 0.02 0.02 0.02 0.01 0.01 0.01 0.01 0.01 0.01 0.01 0.01 0.01 0.01 0.01 0.01 0.01 0.01 0.01 0.01 0.01 0.01 0.01
0.01 0.01 0.01 0.01 0.01 0.01 0.01 0.02 0.02 0.01 0.01 0.01 0.01 0.01 0.01 0.01 0.01 0.02 0.02 0.01 0.01 0.01 0.01 0.01 0.01 0.01 0.01 0.01 0.01 0.01 0.01 0.01 0.01 0.01 0.01 0.01 0.01 0.02 0.02 0.01 0.01 0.01 0.01
0.01 0.01 0.01 0.01 0.01 0.01 0.01 0.01 0.01 0.01 0.01 0.01 0.01 0.01 0.01 0.01 0.01 0.01 0.01 0.01 0.01 0.01 0.01 0.01 0.01 0.01 0.01 0.01 0.01 0.01 0.01 0.01 0.01 0.01 0.02 0.02 0.02 0.02 0.02 0.01 0.01 0.01 0.02
0.01 0.01 0.01 0.01 0.01 0.01 0.01 0.01 0.01 0.01 0.01 0.01 0.01 0.01 0.01 0.01 0.01 0.01 0.01 0.01 0.01 0.01 0.01 0.01 0.01 0.01 0.01 0.01 0.01 0.01 0.01 0.01 0.01 0.01 0.01 0.01 0.02 0.02 0.02 0.02 0.02 0.02 0.02
0.01 0.00 0.01 0.01 0.01 0.01 0.01 0.01 0.01 0.01 0.01 0.01 0.01 0.01 0.01 0.01 0.01 0.01 0.01 0.01 0.01 0.01 0.01 0.01 0.01 0.01 0.01 0.01 0.01 0.01 0.01 0.01 0.01 0.01 0.01 0.02 0.02 0.02 0.01 0.02 0.02 0.02 0.02
0.00 0.00 0.00 0.01 0.01 0.01 0.01 0.01 0.01 0.01 0.01 0.01 0.01 0.01 0.01 0.01 0.01 0.01 0.01 0.01 0.00 0.00 0.00 0.01 0.01 0.01 0.01 0.01 0.01 0.01 0.01 0.01 0.01 0.01 0.01 0.01 0.01 0.01 0.01 0.02 0.02 0.02 0.02
0.01 0.01 0.01 0.01 0.01 0.01 0.01 0.01 0.01 0.01 0.01 0.01 0.01 0.01 0.01 0.01 0.01 0.01 0.01 0.01 0.00 0.00 0.00 0.01 0.01 0.01 0.01 0.01 0.01 0.01 0.01 0.01 0.01 0.02 0.02 0.02 0.02 0.02 0.02 0.02 0.02 0.02 0.02
0.00 0.00 0.01 0.01 0.01 0.01 0.01 0.01 0.01 0.00 0.00 0.00 0.00 0.00 0.01 0.01 0.01 0.00 0.00 0.00 0.00 0.00 0.00 0.00 0.01 0.01 0.01 0.01 0.01 0.01 0.01 0.01 0.02 0.02 0.02 0.02 0.02 0.02 0.02 0.02 0.02 0.02 0.02
0.00 0.00 0.00 0.01 0.01 0.01 0.01 0.01 0.01 0.01 0.00 0.00 0.00 0.01 0.00 0.01 0.01 0.01 0.00 0.01 0.01 0.00 0.00 0.01 0.01 0.01 0.01 0.01 0.01 0.01 0.01 0.01 0.02 0.02 0.02 0.03 0.03 0.02 0.02 0.02 0.02 0.02 0.02
0.00 0.00 0.01 0.01 0.01 0.01 0.01 0.01 0.01 0.01 0.01 0.01 0.01 0.01 0.01 0.01 0.01 0.01 0.01 0.01 0.01 0.00 0.00 0.00 0.00 0.01 0.01 0.01 0.01 0.01 0.01 0.02 0.02 0.02 0.02 0.03 0.02 0.02 0.02 0.02 0.02 0.02 0.02
MSLP
1023.15 1022.84 1022.50 1022.14 1021.76 1021.39 1021.05 1020.76 1020.55 1020.42 1020.38 1020.39 1020.46 1020.54 1020.61 1020.65 1020.66 1020.62 1020.56 1020.49 1020.43 1020.39 1020.39 1020.42 1020.47 1020.53 1020.57 1020.57 1020.53 1020.45 1020.33 1020.19 1020.07 1020.00 1020.00 1020.08 1020.25 1020.50 1020.80 1021.12 1021.41 1021.67 1021.84
1023.30 1023.00 1022.66 1022.28 1021.87 1021.46 1021.06 1020.71 1020.43 1020.22 1020.09 1020.02 1020.00 1020.01 1020.01 1019.99 1019.94 1019.85 1019.74 1019.61 1019.51 1019.42 1019.38 1019.37 1019.39 1019.42 1019.44 1019.45 1019.41 1019.34 1019.24 1019.12 1019.02 1018.95 1018.94 1019.00 1019.14 1019.34 1019.59 1019.86 1020.11 1020.32 1020.48
1023.59 1023.30 1022.97 1022.58 1022.15 1021.69 1021.24 1020.82 1020.45 1020.15 1019.92 1019.75 1019.63 1019.54 1019.46 1019.36 1019.24 1019.10 1018.93 1018.77 1018.61 1018.48 1018.39 1018.34 1018.33 1018.33 1018.34 1018.33 1018.30 1018.24 1018.16 1018.07 1017.98 1017.92 1017.91 1017.96 1018.06 1018.22 1018.41 1018.61 1018.81 1018.98 1019.10
1024.00 1023.72 1023.39 1022.99 1022.54 1022.05 1021.55 1021.07 1020.62 1020.22 1019.89 1019.62 1019.39 1019.20 1019.02 1018.84 1018.66 1018.45 1018.24 1018.03 1017.83 1017.66 1017.53 1017.43 1017.37 1017.33 1017.31 1017.28 1017.24 1017.19 1017.12 1017.04 1016.98 1016.93 1016.91 1016.94 1017.01 1017.12 1017.25 1017.40 1017.54 1017.66 1017.75
1024.49 1024.22 1023.87 1023.46 1022.99 1022.47 1021.94 1021.41 1020.90 1020.43 1020.02 1019.65 1019.33 1019.05 1018.78 1018.52 1018.27 1018.00 1017.74 1017.48 1017.24 1017.02 1016.84 1016.69 1016.57 1016.48 1016.41 1016.35 1016.28 1016.21 1016.13 1016.05 1015.98 1015.93 1015.91 1015.91 1015.95 1016.02 1016.11 1016.20 1016.29 1016.37 1016.43
1025.03 1024.74 1024.37 1023.94 1023.45 1022.92 1022.37 1021.82 1021.28 1020.77 1020.30 1019.87 1019.48 1019.12 1018.79 1018.46 1018.14 1017.82 1017.50 1017.19 1016.89 1016.61 1016.36 1016.15 1015.96 1015.79 1015.65 1015.52 1015.40 1015.28 1015.17 1015.06 1014.97 1014.90 1014.85 1014.83 1014.83 1014.87 1014.92 1014.98 1015.04 1015.10 1015.15
1025.60 1025.27 1024.86 1024.40 1023.90 1023.37 1022.82 1022.27 1021.74 1021.23 1020.74 1020.28 1019.85 1019.45 1019.05 1018.67 1018.29 1017.91 1017.53 1017.15 1016.79 1016.44 1016.10 1015.79 1015.51 1015.25 1015.01 1014.78 1014.58 1014.38 1014.21 1014.04 1013.90 1013.78 1013.69 1013.64 1013.61 1013.61 1013.64 1013.69 1013.74 1013.80 1013.86
1026.20 1025.80 1025.35 1024.86 1024.34 1023.81 1023.29 1022.77 1022.27 1021.78 1021.32 1020.86 1020.42 1019.99 1019.56 1019.12 1018.69 1018.24 1017.80 1017.34 1016.89 1016.45 1016.02 1015.60 1015.21 1014.83 1014.47 1014.13 1013.81 1013.52 1013.24 1013.00 1012.78 1012.59 1012.45 1012.34 1012.27 1012.25 1012.26 1012.30 1012.36 1012.44 1012.52
1026.82 1026.36 1025.86 1025.33 1024.81 1024.29 1023.80 1023.32 1022.87 1022.43 1022.00 1021.57 1021.14 1020.70 1020.24 1019.76 1019.27 1018.76 1018.24 1017.70 1017.16 1016.62 1016.08 1015.55 1015.03 1014.52 1014.03 1013.56 1013.12 1012.71 1012.32 1011.97 1011.66 1011.39 1011.16 1010.99 1010.87 1010.80 1010.79 1010.82 1010.89 1011.00 1011.12
1027.50 1026.99 1026.44 1025.88 1025.35 1024.84 1024.38 1023.95 1023.55 1023.16 1022.77 1022.37 1021.95 1021.50 1021.02 1020.50 1019.96 1019.39 1018.79 1018.17 1017.54 1016.91 1016.26 1015.62 1014.98 1014.35 1013.74 1013.15 1012.58 1012.05 1011.55 1011.08 1010.66 1010.29 1009.97 1009.72 1009.52 1009.39 1009.32 1009.33 1009.39 1009.50 1009.65
1028.26 1027.70 1027.12 1026.54 1026.00 1025.52 1025.08 1024.69 1024.32 1023.97 1023.61 1023.23 1022.81 1022.36 1021.85 1021.30 1020.71 1020.08 1019.42 1018.73 1018.03 1017.31 1016.58 1015.85 1015.12 1014.39 1013.68 1012.98 1012.31 1011.67 1011.06 1010.49 1009.96 1009.47 1009.04 1008.68 1008.37 1008.15 1008.00 1007.92 1007.93 1008.01 1008.15
1029.10 1028.52 1027.92 1027.35 1026.81 1026.34 1025.92 1025.55 1025.21 1024.87 1024.53 1024.15 1023.72 1023.24 1022.71 1022.13 1021.50 1020.83 1020.12 1019.39 1018.64 1017.87 1017.09 1016.30 1015.51 1014.72 1013.94 1013.17 1012.43 1011.70 1011.00 1010.33 1009.70 1009.10 1008.55 1008.05 1007.61 1007.24 1006.95 1006.76 1006.65 1006.63 1006.71
1030.00 1029.44 1028.85 1028.29 1027.77 1027.32 1026.91 1026.55 1026.21 1025.88 1025.52 1025.12 1024.67 1024.17 1023.60 1022.99 1022.33 1021.64 1020.91 1020.16 1019.40 1018.62 1017.82 1017.02 1016.21 1015.40 1014.60 1013.80 1013.01 1012.23 1011.47 1010.72 1010.00 1009.29 1008.61 1007.96 1007.36 1006.81 1006.34 1005.95 1005.66 1005.48 1005.42
1030.94 1030.41 1029.86 1029.34 1028.86 1028.42 1028.03 1027.68 1027.33 1026.97 1026.59 1026.16 1025.68 1025.14 1024.55 1023.91 1023.24 1022.54 1021.82 1021.09 1020.34 1019.58 1018.81 1018.03 1017.24 1016.45 1015.65 1014.85 1014.05 1013.26 1012.46 1011.67 1010.87 1010.07 1009.26 1008.46 1007.68 1006.93 1006.23 1005.60 1005.08 1004.66 1004.39
1031.85 1031.37 1030.89 1030.43 1029.99 1029.60 1029.23 1028.88 1028.52 1028.14 1027.72 1027.25 1026.73 1026.16 1025.55 1024.90 1024.23 1023.54 1022.85 1022.15 1021.44 1020.72 1020.00 1019.27 1018.52 1017.77 1017.01 1016.24 1015.46 1014.67 1013.87 1013.05 1012.21 1011.34 1010.43 1009.49 1008.53 1007.57 1006.64 1005.75 1004.94 1004.24 1003.70
1032.67 1032.27 1031.87 1031.48 1031.11 1030.77 1030.44 1030.09 1029.73 1029.33 1028.88 1028.37 1027.82 1027.22 1026.59 1025.93 1025.27 1024.61 1023.94 1023.28 1022.63 1021.96 1021.29 1020.61 1019.91 1019.21 1018.49 1017.76 1017.01 1016.25 1015.47 1014.66 1013.80 1012.89 1011.91 1010.87 1009.77 1008.62 1007.46 1006.32 1005.23 1004.25 1003.41
1033.35 1033.03 1032.72 1032.42 1032.13 1031.85 1031.56 1031.25 1030.88 1030.47 1029.99 1029.46 1028.88 1028.25 1027.61 1026.95 1026.30 1025.65 1025.01 1024.39 1023.76 1023.14 1022.51 1021.86 1021.20 1020.53 1019.84 1019.15 1018.44 1017.72 1016.97 1016.19 1015.35 1014.44 1013.43 1012.33 1011.14 1009.86 1008.53 1007.17 1005.85 1004.60 1003.49
1033.86 1033.63 1033.41 1033.20 1033.00 1032.79 1032.55 1032.26 1031.91 1031.49 1031.00 1030.44 1029.83 1029.19 1028.53 1027.87 1027.21 1026.57 1025.95 1025.33 1024.72 1024.10 1023.47 1022.83 1022.17 1021.51 1020.84 1020.16 1019.48 1018.80 1018.09 1017.36 1016.56 1015.69 1014.71 1013.62 1012.40 1011.06 1009.63 1008.14 1006.64 1005.20 1003.87
1034.21 1034.06 1033.92 1033.80 1033.68 1033.53 1033.34 1033.08 1032.74 1032.32 1031.82 1031.25 1030.62 1029.96 1029.28 1028.60 1027.94 1027.28 1026.64 1026.00 1025.36 1024.71 1024.05 1023.38 1022.69 1021.99 1021.30 1020.62 1019.95 1019.30 1018.64 1017.96 1017.23 1016.43 1015.52 1014.49 1013.31 1011.99 1010.55 1009.01 1007.44 1005.89 1004.43
1034.44 1034.35 1034.29 1034.24 1034.18 1034.08 1033.92 1033.68 1033.35 1032.93 1032.42 1031.83 1031.19 1030.51 1029.81 1029.10 1028.40 1027.71 1027.03 1026.34 1025.64 1024.92 1024.19 1023.44 1022.68 1021.92 1021.19 1020.47 1019.80 1019.15 1018.53 1017.91 1017.26 1016.56 1015.75 1014.82 1013.74 1012.51 1011.13 1009.64 1008.09 1006.53 1005.03
1034.58 1034.55 1034.54 1034.54 1034.52 1034.44 1034.30 1034.07 1033.74 1033.31 1032.79 1032.19 1031.52 1030.82 1030.10 1029.36 1028.62 1027.87 1027.12 1026.35 1025.56 1024.75 1023.91 1023.06 1022.20 1021.36 1020.55 1019.78 1019.08 1018.43 1017.83 1017.26 1016.69 1016.08 1015.39 1014.59 1013.65 1012.55 1011.31 1009.94 1008.48 1007.00 1005.55
1034.70 1034.71 1034.73 1034.75 1034.74 1034.67 1034.52 1034.28 1033.93 1033.48 1032.95 1032.33 1031.65 1030.93 1030.18 1029.41 1028.62 1027.81 1026.98 1026.12 1025.23 1024.30 1023.35 1022.38 1021.41 1020.46 1019.56 1018.73 1017.98 1017.31 1016.72 1016.18 1015.67 1015.15 1014.57 1013.90 1013.10 1012.16 1011.08 1009.87 1008.57 1007.22 1005.89
1034.83 1034.86 1034.89 1034.91 1034.88 1034.79 1034.61 1034.34 1033.97 1033.51 1032.96 1032.33 1031.64 1030.91 1030.14 1029.33 1028.50 1027.63 1026.73 1025.78 1024.78 1023.74 1022.67 1021.58 1020.50 1019.45 1018.45 1017.55 1016.74 1016.04 1015.44 1014.91 1014.44 1013.97 1013.48 1012.92 1012.25 1011.46 1010.54 1009.50 1008.37 1007.20 1006.03
1034.97 1035.01 1035.04 1035.03 1034.97 1034.84 1034.63 1034.32 1033.93 1033.45 1032.89 1032.26 1031.57 1030.84 1030.06 1029.24 1028.37 1027.45 1026.48 1025.44 1024.35 1023.21 1022.03 1020.84 1019.66 1018.52 1017.45 1016.48 1015.62 1014.88 1014.25 1013.72 1013.25 1012.82 1012.37 1011.88 1011.31 1010.64 1009.86 1008.97 1008.01 1007.00 1006.00
1035.12 1035.16 1035.17 1035.13 1035.03 1034.85 1034.60 1034.26 1033.85 1033.36 1032.80 1032.18 1031.51 1030.79 1030.01 1029.18 1028.29 1027.34 1026.31 1025.21 1024.04 1022.82 1021.56 1020.28 1019.03 1017.82 1016.69 1015.67 1014.77 1013.99 1013.34 1012.78 1012.31 1011.87 1011.45 1010.99 1010.47 1009.88 1009.20 1008.44 1007.61 1006.75 1005.90
1035.23 1035.26 1035.25 1035.17 1035.03 1034.82 1034.54 1034.18 1033.76 1033.27 1032.73 1032.14 1031.49 1030.79 1030.03 1029.20 1028.30 1027.32 1026.25 1025.11 1023.88 1022.60 1021.28 1019.96 1018.65 1017.41 1016.25 1015.20 1014.27 1013.47 1012.80 1012.22 1011.72 1011.27 1010.84 1010.38 1009.89 1009.33 1008.71 1008.04 1007.31 1006.57 1005.84
Thickness
5525 5520 5516 5513 5508 5505 5501 5498 5494 5490 5486 5483 5480 5477 5473 5469 5465 5462 5458 5454 5450 5446 5443 5440 5437 5432 5428 5423 5417 5413 5409 5406 5405 5405 5398 5393 5387 5383 5378 5374 5371 5368 5365
5520 5515 5511 5507 5503 5499 5495 5491 5487 5483 5480 5477 5473 5470 5467 5462 5458 5455 5451 5447 5444 5440 5437 5433 5430 5425 5420 5415 5410 5406 5402 5398 5395 5394 5391 5385 5380 5374 5370 5365 5361 5357 5354
5515 5510 5505 5501 5497 5493 5488 5484 5480 5476 5473 5470 5467 5464 5460 5456 5452 5448 5444 5440 5437 5434 5430 5427 5423 5418 5413 5408 5404 5399 5395 5390 5386 5383 5381 5376 5371 5365 5360 5356 5352 5348 5344
5510 5505 5500 5496 5491 5487 5482 5477 5473 5470 5467 5463 5460 5456 5453 5449 5445 5440 5436 5433 5429 5426 5423 5419 5415 5411 5407 5401 5396 5392 5387 5382 5378 5374 5371 5368 5363 5356 5350 5347 5345 5340 5336
5505 5500 5496 5490 5485 5480 5476 5471 5467 5463 5459 5456 5452 5449 5445 5441 5437 5433 5429 5425 5422 5418 5415 5411 5407 5402 5397 5392 5388 5384 5379 5375 5370 5365 5362 5358 5353 5346 5341 5336 5333 5331 5328
5500 5495 5490 5484 5478 5473 5469 5464 5460 5456 5452 5448 5445 5441 5437 5433 5428 5424 5420 5417 5413 5410 5406 5403 5398 5393 5388 5383 5378 5374 5370 5366 5362 5357 5353 5348 5343 5336 5330 5324 5320 5319 5320
5494 5489 5483 5477 5472 5467 5462 5457 5453 5449 5445 5441 5437 5433 5430 5426 5420 5416 5411 5408 5404 5401 5398 5394 5389 5384 5378 5374 5370 5365 5360 5355 5350 5345 5342 5337 5331 5325 5319 5314 5309 5305 5304
5487 5482 5477 5471 5466 5461 5455 5451 5447 5442 5438 5434 5430 5426 5422 5418 5412 5407 5403 5399 5396 5392 5388 5384 5380 5375 5370 5365 5361 5357 5352 5346 5340 5334 5331 5326 5319 5312 5306 5301 5297 5293 5291
5480 5475 5470 5465 5460 5454 5450 5445 5440 5435 5431 5426 5421 5417 5413 5409 5404 5399 5394 5391 5387 5383 5379 5374 5370 5365 5361 5356 5352 5348 5344 5338 5331 5324 5319 5313 5307 5300 5294 5289 5284 5281 5281
5473 5468 5463 5458 5453 5449 5444 5438 5433 5427 5423 5418 5413 5408 5404 5401 5396 5391 5386 5382 5378 5374 5370 5365 5360 5356 5352 5346 5342 5338 5334 5329 5322 5316 5309 5303 5297 5291 5284 5277 5272 5267 5265
5464 5459 5454 5449 5445 5440 5435 5429 5424 5418 5413 5408 5404 5400 5395 5391 5387 5382 5377 5373 5369 5365 5361 5356 5352 5346 5342 5337 5332 5327 5323 5317 5311 5305 5300 5294 5288 5282 5276 5268 5262 5256 5252
5453 5449 5445 5440 5435 5430 5424 5419 5413 5408 5403 5399 5395 5391 5387 5382 5377 5373 5368 5364 5359 5354 5351 5347 5342 5337 5332 5327 5322 5317 5311 5305 5300 5294 5290 5285 5280 5274 5267 5260 5253 5247 5242
5441 5438 5434 5429 5425 5420 5415 5410 5404 5399 5395 5391 5386 5383 5379 5373 5368 5364 5359 5354 5349 5344 5340 5336 5331 5327 5322 5317 5312 5306 5300 5294 5289 5284 5280 5276 5269 5263 5257 5251 5245 5239 5234
5430 5427 5423 5418 5415 5409 5405 5400 5396 5392 5387 5382 5378 5374 5370 5365 5359 5354 5349 5344 5339 5333 5329 5324 5320 5315 5311 5306 5300 5294 5288 5282 5277 5273 5269 5263 5257 5252 5246 5241 5236 5230 5226
5418 5415 5411 5407 5404 5399 5395 5391 5387 5383 5379 5374 5371 5366 5360 5356 5352 5346 5340 5335 5329 5324 5317 5313 5308 5304 5299 5294 5288 5282 5276 5271 5265 5260 5255 5250 5245 5240 5235 5229 5224 5219 5215
5406 5402 5399 5396 5392 5388 5383 5378 5374 5370 5366 5362 5358 5354 5350 5345 5340 5335 5330 5324 5318 5312 5306 5302 5298 5292 5287 5282 5277 5271 5265 5260 5254 5247 5242 5237 5232 5228 5223 5217 5211 5207 5204
5395 5391 5387 5383 5380 5376 5372 5368 5364 5358 5354 5350 5346 5341 5337 5332 5328 5323 5318 5312 5306 5299 5293 5289 5285 5280 5274 5268 5263 5257 5253 5247 5241 5235 5230 5225 5219 5214 5209 5205 5200 5196 5193
5381 5377 5374 5370 5366 5363 5360 5356 5352 5348 5343 5339 5333 5329 5324 5319 5315 5310 5304 5298 5292 5286 5281 5276 5271 5266 5260 5255 5249 5244 5239 5233 5227 5222 5217 5212 5207 5202 5197 5193 5189 5185 5182
5367 5364 5359 5355 5352 5349 5346 5342 5338 5333 5330 5325 5320 5315 5310 5305 5301 5296 5290 5284 5280 5275 5269 5263 5258 5252 5247 5241 5236 5230 5225 5220 5215 5209 5205 5200 5195 5189 5185 5181 5178 5175 5170
5353 5349 5344 5341 5337 5334 5330 5326 5322 5318 5314 5310 5306 5302 5296 5291 5287 5283 5277 5271 5266 5262 5257 5251 5245 5240 5234 5229 5224 5218 5213 5208 5203 5198 5193 5189 5184 5179 5174 5170 5168 5165 5163
5338 5334 5329 5326 5323 5319 5315 5312 5308 5304 5300 5297 5293 5288 5284 5279 5275 5270 5265 5260 5255 5250 5245 5240 5234 5228 5222 5216 5212 5207 5202 5197 5192 5187 5182 5178 5173 5169 5165 5162 5159 5156 5154
5323 5320 5316 5313 5310 5306 5302 5297 5293 5290 5286 5283 5279 5274 5270 5265 5261 5257 5253 5248 5243 5238 5233 5228 5223 5218 5212 5206 5201 5196 5191 5186 5181 5176 5172 5167 5163 5161 5157 5154 5151 5149 5146
5309 5305 5302 5299 5296 5292 5288 5284 5280 5277 5273 5269 5265 5261 5257 5253 5249 5245 5241 5236 5231 5226 5222 5217 5213 5208 5202 5196 5191 5185 5181 5177 5172 5167 5162 5159 5155 5153 5150 5147 5145 5142 5141
5295 5292 5289 5286 5283 5280 5276 5273 5269 5265 5261 5257 5253 5249 5245 5241 5237 5233 5229 5225 5220 5216 5211 5207 5203 5199 5193 5187 5182 5177 5172 5168 5163 5159 5155 5151 5148 5146 5144 5141 5139 5137 5135
5281 5279 5276 5274 5270 5267 5264 5261 5257 5254 5249 5245 5242 5238 5234 5230 5226 5222 5218 5214 5210 5206 5201 5197 5193 5188 5184 5179 5174 5170 5166 5161 5157 5152 5148 5144 5142 5140 5138 5136 5134 5131 5129
5269 5266 5264 5261 5258 5255 5252 5248 5245 5242 5238 5234 5231 5227 5224 5220 5216 5212 5208 5203 5199 5195 5191 5187 5183 5179 5175 5171 5167 5163 5159 5156 5152 5148 5144 5140 5138 5135 5133 5131 5129 5127 5125